#timestamp,LO_Frequency,Hit,StdDev 
1658192415.4,286047000.6,N
1658192435.2,286047001.1,N
1658192455.1,286047000.7,N
1658192456.0,286047000.7,N
1658192475.8,286046998.7,N
1658192495.6,286046998.6,N
1658192515.5,286046999.3,N
1658192535.3,286046996.9,N
1658192555.2,286046998.3,N
1658192575.9,286046999.3,N
1658192595.7,286046998.2,N
1658192615.6,286046998.2,N
1658192635.4,286046998.5,N
1658192655.2,286047000.1,N
1658192675.1,286047000.3,N
1658192676.0,286047000.3,N
1658192695.8,286047000.3,N
1658192715.7,286047000.0,N
1658192735.5,286047000.5,N
1658192755.3,286047000.2,N
1658192775.2,286047000.6,N
1658192795.0,286047000.4,N
1658192795.9,286047000.4,N
1658192815.7,286046999.7,N
1658192835.6,286047002.7,N
1658192855.4,286047002.1,N
1658192875.3,286047002.0,N
1658192895.1,286047003.9,Y
1658192896.0,286047003.9,P
1658192915.8,286047004.3,N
1658192935.7,286047001.3,N
1658192955.5,286047004.3,N
1658192975.3,286047001.4,N
1658192995.2,286047002.7,N
1658193015.0,286047000.9,N
1658193015.9,286047000.9,N
1658193035.8,286047001.2,N
1658193055.6,286046998.1,N
1658193075.4,286047000.1,N
1658193095.3,286046998.2,N
1658193115.1,286046998.2,N
1658193135.8,286046998.8,N
1658193155.7,286046999.4,N
1658193175.5,286046996.8,N
1658193195.4,286046996.9,N
1658193215.2,286046997.5,N
1658193235.0,286046997.1,N
1658193235.9,286046997.1,N
1658193255.8,286046996.5,N
1658193275.6,286046996.7,N
1658193295.5,286046997.0,N
1658193315.3,286046996.7,N
1658193335.1,286046995.1,N
1658193355.9,286046998.0,N
1658193375.7,286046996.8,N
1658193395.5,286046997.3,N
1658193415.4,286046997.3,N
1658193435.2,286046997.2,N
1658193455.0,286046997.8,N
1658193456.0,286046997.8,N
1658193475.8,286046997.8,N
1658193495.6,286046995.4,N
1658193515.5,286046995.4,N
1658193535.3,286046995.5,N
1658193555.1,286046996.1,N
1658193575.9,286046996.3,N
1658193595.7,286046993.3,Y
1658193615.6,286046996.7,P
1658193635.4,286046996.7,P
1658193655.2,286046997.6,P
1658193675.1,286046997.7,Y
1658193676.0,286046997.7,P
1658193695.8,286047000.5,N
1658193715.6,286047001.0,N
1658193735.5,286046998.5,N
1658193755.3,286046998.2,N
1658193775.2,286047001.0,N
1658193795.9,286046998.4,N
1658193815.7,286046998.3,N
1658193835.6,286046998.7,N
1658193855.4,286046999.3,N
1658193875.2,286046999.4,N
1658193895.1,286046997.0,N
1658193896.0,286046997.0,N
1658193915.8,286046996.5,N
1658193935.7,286046997.1,N
1658193955.5,286046997.7,N
1658193975.3,286046997.2,N
1658193995.2,286046999.1,N
1658194015.0,286046999.6,N
1658194015.9,286046999.6,N
1658194035.7,286046996.5,N
1658194055.6,286046999.5,N
1658194075.4,286046996.5,N
1658194095.3,286046996.9,N
1658194115.1,286046997.0,N
1658194116.0,286046997.0,N
1658194135.8,286046996.5,N
1658194155.7,286046997.2,N
1658194175.5,286046995.0,Y
1658194195.3,286046997.7,P
1658194215.2,286046996.7,P
1658194235.0,286046997.1,P
1658194235.9,286046997.1,Y
1658194255.8,286047000.8,P
1658194275.6,286047001.2,N
1658194295.4,286047000.8,N
1658194315.3,286046998.9,N
1658194335.1,286046998.3,N
1658194355.9,286046998.9,N
1658194375.7,286047001.1,N
1658194395.5,286047001.2,N
1658194415.4,286046998.1,N
1658194435.2,286046998.3,N
1658194455.0,286046998.1,N
1658194455.9,286046998.1,N
1658194475.8,286046998.1,N
1658194495.6,286047000.8,N
1658194515.5,286046998.4,N
1658194535.3,286046998.8,N
1658194555.1,286046999.0,N
1658194575.9,286046996.5,N
1658194595.7,286046999.5,N
1658194615.5,286046997.4,N
1658194635.4,286046997.4,N
1658194655.5,286046997.2,N
1658194675.4,286046996.6,N
1658194695.2,286046996.6,N
1658194715.0,286046999.5,N
1658194715.9,286046999.5,N
1658194735.8,286046996.6,N
1658194755.6,286046998.8,N
1658194775.4,286046998.4,N
1658194795.3,286046999.5,N
1658194815.1,286046999.1,N
1658194835.9,286046997.4,N
1658194855.7,286046995.0,Y
1658194875.5,286046999.5,P
1658194895.4,286046999.2,N
1658194915.2,286046996.6,P
1658194935.0,286046999.4,N
1658194936.0,286046999.4,N
1658194955.8,286046999.3,N
1658194975.6,286046999.6,N
1658194995.5,286046998.5,N
1658195015.3,286046998.2,N
1658195035.1,286047001.1,N
1658195055.9,286046998.3,N
1658195075.7,286046999.1,N
1658195095.6,286046999.3,N
1658195115.4,286046999.1,N
1658195135.2,286046996.5,Y
1658195155.1,286047000.8,P
1658195156.0,286047000.8,N
1658195175.8,286046998.2,N
1658195195.6,286047001.0,N
1658195215.5,286047001.0,N
1658195235.3,286046998.4,N
1658195255.2,286046998.4,N
1658195275.9,286046998.2,N
1658195295.7,286047000.4,N
1658195315.6,286046998.5,N
1658195335.4,286046999.2,N
1658195355.2,286047001.1,N
1658195375.1,286047000.8,N
1658195376.0,286047000.8,N
1658195395.8,286047001.2,N
1658195415.7,286046998.2,N
1658195435.5,286046998.1,N
1658195455.3,286046998.2,N
1658195475.2,286046998.8,N
1658195495.0,286046998.3,N
1658195495.9,286046998.3,N
1658195515.7,286046998.6,N
1658195535.6,286046998.1,N
1658195555.4,286046998.2,N
1658195575.3,286046998.7,N
1658195595.1,286046998.6,N
1658195596.0,286046998.6,N
1658195615.8,286046998.1,N
1658195635.7,286046998.1,N
1658195655.5,286046998.6,N
1658195675.3,286046998.3,N
1658195695.2,286047001.1,N
1658195715.0,286047001.2,N
1658195715.9,286047001.2,N
1658195735.8,286046998.1,N
1658195755.6,286047001.2,N
1658195775.4,286047001.0,N
1658195795.3,286046998.4,N
1658195815.1,286046996.6,N
1658195835.9,286046999.1,N
1658195855.7,286046998.8,N
1658195875.5,286046998.4,N
1658195895.4,286046998.3,N
1658195915.2,286046998.4,N
1658195935.0,286046998.8,N
1658195935.9,286046998.8,N
1658195955.8,286046999.5,N
1658195975.6,286046999.5,N
1658195995.5,286046996.9,N
